Fairweather Grounds 92NM Southeast of Yakutat, AK (46083)

Conditions for Friday

Daily
Weekly
Monthly
Marine Data Graph

Marine & Boating Location Search

Enter a coastal zip code for marine weather.

General Information

Location: 58.237 North -137.986 West
Buoy Type: 6-meter NOMAD buoy
Buoy Hull: 6N31
Payload: ARES 4.4 payload
Owned by: NDBC
Windspeed: Measured by obtained from anemometer
Sea Surface: Measured by Intake
Note:

Weather and Wave Data

Time Temp Humidity Wind Dominant Wave Wind Wave Wave Swell Pressure
  Air
(°F)
Water
(°F)
  Dir Speed
(kts)
Speed
(mph)
Period
(sec)
Height
(ft)
Range
(ft)
Period
(sec)
Height
(ft)
Range
(ft)
Period
(sec)
Height
(ft)
Range
(ft)
Atmo.
(in)
Tend.
(in)
20:50 41 43 100 SSE 25.3 29.1 6 9.19 exactly 9.2 6 8.20 7.38 - 9.02 11 3.28 2.46 - 4.10 29.65 -0.09
21:50 42 43 100 South 19.4 22.4 6 9.51 exactly 9.5 6 9.84 9.02 - 10.66 12 3.28 2.46 - 4.10 29.62 -0.09
22:50 43 43 98 South 17.5 20.1 7 9.51 exactly 9.5 7 8.20 7.38 - 9.02 10 3.28 2.46 - 4.10 29.62 -0.06
23:50 42 43 100 South 13.6 15.7 8 9.19 exactly 9.2 7 6.56 5.74 - 7.38 8 6.56 5.74 - 7.38 29.60 -0.04
00:50 42 43 100 South 11.7 13.4 7 9.51 exactly 9.5 6 4.92 4.10 - 5.74 7 8.20 7.38 - 9.02 29.60 -0.03
01:50 42 43 100 SSW 9.7 11.2 7 9.19 exactly 9.2 4 3.28 2.46 - 4.10 7 8.20 7.38 - 9.02 29.61 -0.01
02:50 42 43 100 South 7.8 8.9 8 9.84 exactly 9.8 3 3.28 2.46 - 4.10 8 9.84 9.02 - 10.66 29.61 +0.01
03:50 42 43 100 SSW 7.8 8.9 8 9.84 exactly 9.8 3 1.64 0.82 - 2.46 8 9.84 9.02 - 10.66 29.62 +0.03
04:50 42 43 99 WSW 7.8 8.9 8 9.19 exactly 9.2 4 1.64 0.82 - 2.46 8 8.20 7.38 - 9.02 29.63 +0.03
05:50 41 43 100 West 9.7 11.2 8 9.19 exactly 9.2 5 3.28 2.46 - 4.10 8 8.20 7.38 - 9.02 29.65 +0.04
06:50 41 43 100 West 13.6 15.7 8 9.19 exactly 9.2 6 4.92 4.10 - 5.74 8 8.20 7.38 - 9.02 29.68 +0.06
07:50 41 43 100 West 11.7 13.4 9 8.86 exactly 8.9 5 3.28 2.46 - 4.10 9 8.20 7.38 - 9.02 29.70 +0.07
08:50 42 42 99 West 11.7 13.4 8 8.86 exactly 8.9 6 3.28 2.46 - 4.10 8 8.20 7.38 - 9.02 29.73 +0.07
09:50 42 42 99 West 13.6 15.7 8 8.20 exactly 8.2 5 4.92 4.10 - 5.74 8 6.56 5.74 - 7.38 29.75 +0.07
10:50 41 42 98 West 11.7 13.4 9 7.55 exactly 7.5 4 3.28 2.46 - 4.10 9 6.56 5.74 - 7.38 29.78 +0.07
11:50 42 42 99 West 15.6 17.9 9 8.53 exactly 8.5 7 6.56 5.74 - 7.38 9 6.56 5.74 - 7.38 29.80 +0.08
12:50 43 42 98 WNW 13.6 15.7 9 8.20 exactly 8.2 6 3.28 2.46 - 4.10 9 6.56 5.74 - 7.38 29.83 +0.08
13:50 42 42 100 WNW 11.7 13.4 9 7.55 exactly 7.5 5 3.28 2.46 - 4.10 9 6.56 5.74 - 7.38 29.87 +0.09
14:50 42 42 100 WNW 9.7 11.2 10 7.87 exactly 7.9 4 1.64 0.82 - 2.46 10 8.20 7.38 - 9.02 29.90 +0.10
15:50 42 42 100 NW 11.7 13.4 10 8.20 exactly 8.2 5 3.28 2.46 - 4.10 10 8.20 7.38 - 9.02 29.93 +0.10
16:50 42 42 99 NW 11.7 13.4 11 7.22 exactly 7.2 6 3.28 2.46 - 4.10 11 6.56 5.74 - 7.38 29.95 +0.08
17:50 42 42 99 WNW 11.7 13.4 11 8.20 exactly 8.2 5 3.28 2.46 - 4.10 11 8.20 7.38 - 9.02 29.96 +0.06
18:50 41 42 100 NW 7.8 8.9 10 8.20 exactly 8.2 4 1.64 0.82 - 2.46 10 8.20 7.38 - 9.02 29.99 +0.06
19:50 42 42 99 NW 7.8 8.9 10 7.55 exactly 7.5 4 1.64 0.82 - 2.46 10 6.56 5.74 - 7.38 30.01 +0.06
20:50 42 42 99 WNW 7.8 8.9 10 7.87 exactly 7.9 4 1.64 0.82 - 2.46 10 8.20 7.38 - 9.02 30.02 +0.05
21:50 42 42 99 WNW 3.9 4.5 11 7.55 exactly 7.5 4 1.64 0.82 - 2.46 11 6.56 5.74 - 7.38 30.03 +0.04
22:50 42 42 98 SSW 3.9 4.5 9 7.87 exactly 7.9 4 1.64 0.82 - 2.46 9 8.20 7.38 - 9.02 30.05 +0.04
23:50 42 42 99 SSE 5.8 6.7 10 8.20 exactly 8.2 4 1.64 0.82 - 2.46 10 8.20 7.38 - 9.02 30.06 +0.04
00:50 42 42 99 South 9.7 11.2 10 7.55 exactly 7.5 5 1.64 0.82 - 2.46 10 6.56 5.74 - 7.38 30.05 +0.02
01:50 41 42 98 South 13.6 15.7 11 8.86 exactly 8.9 5 3.28 2.46 - 4.10 11 8.20 7.38 - 9.02 30.06 +0.01
02:50 39 42 100 SSE 15.6 17.9 10 7.55 exactly 7.5 6 3.28 2.46 - 4.10 10 6.56 5.74 - 7.38 30.06 -
03:50 40 42 100 SSE 17.5 20.1 10 6.89 exactly 6.9 5 3.28 2.46 - 4.10 10 6.56 5.74 - 7.38 30.04 -0.01

Detailed Wave Spectra

Time Water Depth Wave Height Spectral Peak Period Average Wave Period Sampling Interval Wave Record
20:00 463 ft 8.01 ft 5.6 sec 5.0 sec 0.6 sec 2400 sec
21:00 463 ft 9.22 ft 6.3 sec 5.4 sec 0.6 sec 2400 sec
22:00 463 ft 9.58 ft 6.3 sec 5.6 sec 0.6 sec 2400 sec
23:00 463 ft 9.45 ft 7.1 sec 5.6 sec 0.6 sec 2400 sec
00:00 463 ft 9.28 ft 8.3 sec 5.8 sec 0.6 sec 2400 sec
01:00 463 ft 9.65 ft 7.1 sec 6.0 sec 0.6 sec 2400 sec
02:00 463 ft 9.32 ft 7.1 sec 6.0 sec 0.6 sec 2400 sec
03:00 463 ft 9.71 ft 8.3 sec 6.2 sec 0.6 sec 2400 sec
04:00 463 ft 9.91 ft 8.3 sec 6.3 sec 0.6 sec 2400 sec
05:00 463 ft 9.06 ft 7.7 sec 6.5 sec 0.6 sec 2400 sec
06:00 463 ft 9.25 ft 7.7 sec 6.5 sec 0.6 sec 2400 sec
07:00 463 ft 9.12 ft 8.3 sec 6.5 sec 0.6 sec 2400 sec
08:00 463 ft 8.79 ft 9.1 sec 6.4 sec 0.6 sec 2400 sec
09:00 463 ft 8.92 ft 8.3 sec 6.5 sec 0.6 sec 2400 sec
10:00 463 ft 8.07 ft 8.3 sec 6.1 sec 0.6 sec 2400 sec
11:00 463 ft 7.55 ft 9.1 sec 6.0 sec 0.6 sec 2400 sec
12:00 463 ft 8.66 ft 9.1 sec 6.2 sec 0.6 sec 2400 sec
13:00 463 ft 8.17 ft 9.1 sec 6.4 sec 0.6 sec 2400 sec
14:00 463 ft 7.68 ft 9.1 sec 6.3 sec 0.6 sec 2400 sec
15:00 463 ft 7.84 ft 10.0 sec 6.5 sec 0.6 sec 2400 sec
16:00 463 ft 8.30 ft 10.0 sec 6.9 sec 0.6 sec 2400 sec
17:00 463 ft 7.35 ft 10.8 sec 6.6 sec 0.6 sec 2400 sec
18:00 463 ft 8.37 ft 11.4 sec 6.7 sec 0.6 sec 2400 sec
19:00 463 ft 8.20 ft 10.0 sec 6.9 sec 0.6 sec 2400 sec
20:00 463 ft 7.51 ft 10.0 sec 6.5 sec 0.6 sec 2400 sec
21:00 463 ft 7.94 ft 10.0 sec 6.7 sec 0.6 sec 2400 sec
22:00 463 ft 7.58 ft 10.8 sec 6.7 sec 0.6 sec 2400 sec
23:00 463 ft 7.78 ft 9.1 sec 6.9 sec 0.6 sec 2400 sec
00:00 463 ft 8.17 ft 10.0 sec 6.9 sec 0.6 sec 2400 sec
01:00 463 ft 7.51 ft 10.0 sec 7.2 sec 0.6 sec 2400 sec
02:00 463 ft 8.69 ft 10.8 sec 7.3 sec 0.6 sec 2400 sec
03:00 463 ft 7.55 ft 10.0 sec 6.8 sec 0.6 sec 2400 sec